Location: Peterborough
(44.3091°N, 78.3197°W)
Time: 03:40:03
(UTC-04:00)

S-56A Canister/Altair - Pass Details

Date: 28 March 2023
Orbit: 639 x 2492 km, 38.9° (Epoch: 08 June)

Event Time Altitude Azimuth Distance (km) Brightness Sun altitude
Rises 00:56:32 0° 283° (WNW) 5,877 12.2 -42.5°
Reaches altitude 10° 01:00:27 10° 277° (W) 5,006 11.7 -42.6°
Enters shadow 01:08:12 33° 254° (WSW) 3,588 10.7 -42.7°
Maximum altitude 01:13:53 44° 213° (SSW) 3,155 - -42.8°
Drops below altitude 10° 01:26:41 10° 148° (SSE) 4,757 - -42.8°
Sets 01:30:19 0° 142° (SE) 5,568 - -42.7°
